AirNav   Everest Fuels
 
 343 users online  

U54 Bernard USFS Airport
Bernard, Idaho, USA

GOING TO BERNARD?


FAA INFORMATION EFFECTIVE 05 DECEMBER 2019

Location

FAA Identifier: U54
Lat/Long: 44-58-46.6920N 114-44-05.3290W
44-58.778200N 114-44.088817W
44.9796367,-114.7348136
(estimated)
Elevation: 3626 ft. / 1105.2 m (surveyed)
Variation: 17E (1985)
Time zone: UTC -7 (UTC -6 during Daylight Saving Time)
Zip code: 83469

Airport Operations

Airport use: Open to the public
Activation date: 08/1947
Control tower: no
ARTCC: SALT LAKE CITY CENTER
FSS: BOISE FLIGHT SERVICE STATION
NOTAMs facility: BOI (NOTAM-D service available)
Attendance: UNATNDD
Wind indicator: yes
Segmented circle: no

Airport Communications

CTAF: 122.9

Nearby radio navigation aids

VOR radial/distance  VOR name  Freq  Var
LKTr252/27.7SALMON VOR/DME113.5013E

Airport Services

Parking: tiedowns
Airframe service: NONE
Powerplant service: NONE
Bottled oxygen: NONE
Bulk oxygen: NONE

Runway Information

Runway 17/35

Dimensions: 1900 x 150 ft. / 579 x 46 m
Surface: turf/dirt, in fair condition
MIDDLE PORTION OF RY ROUGH AND UNEVEN ENTIRE LENGTH.
Runway edge markings: RY 17/35 EDGES & THLDS MKD WITH WHITE ROCK MARKERS.
RUNWAY 17  RUNWAY 35
Traffic pattern: leftleft
Markings: nonenone
Obstructions: 55 ft. tree, 150 ft. from runway, 70 ft. left of centerline, 2:1 slope to clear
RWY 17 +4 FT FENCE AT 0 FT 85 FT R; +500 FT RDG AT 1000 FT ON CNTRLN; +500 FT RDG AT 500 FT 200 FT R; +30 FT RDG AT 200 FT ON CNTRLN.
170 ft. hill, 1000 ft. from runway, 300 ft. right of centerline, 5:1 slope to clear

Airport Ownership and Management from official FAA records

Ownership: Publicly-owned
Owner: U S FOREST SERVICE
324 25TH ST
OGDEN, UT 84401
Phone 801-625-5511
Manager: MIDDLE FORK RANGER DIST.
1206 S CHALLIS
SALMON, ID 83467
Phone 208-756-5554

Airport Operational Statistics

Aircraft operations: avg 79/month *
53% transient general aviation
47% air taxi
* for 12-month period ending 30 August 2019

Additional Remarks

FLYING B PVT ARPT LCTD 1/2 MILE UPSTREAM.
NO WINTER MAINTENANCE.
RCMD LND RWY 35 & TKOF RWY 17; NO TGL OR STOP & GO LDGS; GO AROUNDS NOT RCMD DUE TO STEEP RSG TRRN OFF N END OF RWY 17.
NO TELEPHONE AVBL AT ARPT.
FOR CD CTC SALT LAKE ARTCC AT 801-320-2568.

Instrument Procedures

There are no published instrument procedures at U54.

Some nearby airports with instrument procedures:

KSMN - Lemhi County Airport (37 nm E)
KMYL - Mc Call Municipal Airport (58 nm W)
6S5 - Ravalli County Airport (80 nm N)
KGIC - Idaho County Airport (82 nm NW)
KSUN - Friedman Memorial Airport (91 nm S)
 
Loc | Ops | Rwys | IFR | FBO | Links
Com | Nav | Svcs | Stats | Notes
Area around U54 (Bernard USFS Airport)
 
Road maps at: MapQuest Bing Google
 
Aerial photo
WARNING: Photo may not be current or correct
Aerial photo of U54 (Bernard USFS Airport)
Photo taken 05-Jul-2008

Do you have a better or more recent aerial photo of Bernard USFS Airport that you would like to share? If so, please send us your photo.

 
Sectional chart

 
Airport distance calculator
Flying to Bernard USFS Airport? Find the distance to fly.

From to U54

Sunrise and sunset
Times for 11-Dec-2019
 Local
(UTC-7)
 Zulu
(UTC)
Morning civil twilight07:3414:34
Sunrise08:0815:08
Sunset16:5623:56
Evening civil twilight17:3000:30

Current date and time
Zulu (UTC)  12-Dec-2019 06:37:44
Local (UTC-7)  11-Dec-2019 23:37:44
 
METAR
KLLJ 
35nm SE 
120555Z AUTO 01003KT 10SM OVC060 M02/M07 A3000 RMK AO2 SLP189 T10221067 11017 21033 56011
KSMN 
38nm E 
120609Z AUTO 17004KT 10SM FEW022 OVC070 M02/M04 A3001 RMK AO2 UPE07 P0000 FZRANO
KSNT 
50nm S 
120551Z AUTO 16008KT M01/M03 A2999 RMK AO1 SLP156 P0001 60003 T10061028 10000 21028 56014
TAF
KSMN 
38nm E 
120520Z 1206/1306 00000KT P6SM OVC050 FM121600 28005KT 4SM -SN OVC050 FM121900 30006KT P6SM BKN070 FM130400 22005KT P6SM -SN OVC050
NOTAMs
Click for the latest NOTAMs
NOTAMs are issued by the DoD/FAA and will open in a separate window not controlled by AirNav.

 

 
 

Would you like to see your business listed on this page?

 If your business provides an interesting product or service to pilots, flight crews, aircraft, or users of the Bernard USFS Airport, you should consider listing it here.  To start the listing process, click on the button below
 
Add a business
 

Other Pages about Bernard USFS Airport

www.flyidaho.org/...
 
Update a link
 
Copyright © AirNav, LLC. All rights reserved. Privacy Policy  Contact